STARLINK-1661 (46355 NORAD) Tracking and Keplerian Element Data
This shows tracking and keplerian element data for the satellite.
Feedback or suggestion? Click here.
Element | Value |
Catalog | 46355 |
Name | STARLINK-1661 |
Epoch Orbit | 176 |
Epoch Day | 26.91667824 |
Epoch Year | 2021 |
RAAN | 121.3606 |
Inclination | 53.0572 |
Eccentricity | 0.0001584 |
Argument of Perigee | 62.9689 |
Mean Anonmoly | 345.6588 |
Mean Motion | 15.06438542 |
Decay Rate | -0.00082506 |
L1 | 1 46355U 20062AG 21026.91667824 -.00082506 00000-0 -55788-2 0 9995 |
L2 | 2 46355 53.0572 121.3606 0001584 62.9689 345.6588 15.06438542 1765 |
Live tracking and technical data element details for STARLINK-1661 (NORAD 46355). STARLINK-1661 can be tracked NOW for your location showing map with azimuth and elevation plus other details from your city location.
Track the satellite on the map from your city or location and see movement details for azimuth, elevation, latitude, longitude, range, height, and movement on the map or in text.
IsCatalogInMostPopularTable: catalog: 46355, numindb: 60
Update: records affected: 1
GetName: 46355 STARLINK-1661
Hit Count: updated at: Thu, 28 Jan 2021 13:05:14 GMT